OE6PLD-13 Weather Reports


time (UTC)temp
F
wind
direction
speed
knots
gust
knots
rain 1hr
in
rain 24hr
in
rain mn
in
humidity
%
barometer
mb
20260506165255 69 266 4.3 11.3 0.03 0.03 0.00 60 1012.3
20260506164952 70 266 4.3 7.8 0.03 0.03 0.00 58 1012.2
20260506164648 70 266 0.9 5.2 0.03 0.03 0.00 57 1012.4
20260506164345 71 266 1.7 7.8 0.03 0.03 0.00 56 1012.2
20260506164042 70 266 4.3 7.8 0.03 0.03 0.00 57 1012.3
20260506163738 69 266 0.0 7.8 0.03 0.03 0.00 59 1012.1
20260506163435 68 266 0.9 13.0 0.03 0.03 0.00 59 1012.2
20260506163132 68 266 5.2 10.4 0.03 0.03 0.00 59 1012.1
20260506162828 68 266 1.7 10.4 0.03 0.03 0.00 60 1012.4
20260506162525 68 266 3.5 9.6 0.03 0.03 0.00 59 1012.4
20260506162222 68 266 1.7 11.3 0.03 0.03 0.00 59 1012.4
20260506161918 69 266 2.6 10.4 0.03 0.03 0.00 59 1012.1
20260506161615 69 266 0.9 15.6 0.03 0.03 0.00 58 1012.3
20260506161312 71 266 2.6 8.7 0.03 0.03 0.00 56 1012.3
20260506161008 72 266 6.1 8.7 0.03 0.03 0.00 54 1012.2
20260506160705 71 266 1.7 7.8 0.03 0.03 0.00 55 1012.1
20260506160401 70 266 0.9 9.6 0.03 0.03 0.00 57 1012.4
20260506160058 69 266 6.1 9.6 0.03 0.03 0.00 57 1012.4
20260506155755 70 266 5.2 12.2 0.03 0.03 0.00 56 1012.5
20260506155451 71 266 5.2 12.2 0.03 0.03 0.00 55 1012.5
20260506155148 71 266 6.1 11.3 0.03 0.03 0.00 54 1012.3
20260506154844 71 266 7.8 14.8 0.03 0.03 0.00 55 1012.3
20260506154541 71 266 7.8 14.8 0.03 0.03 0.00 55 1012.5
20260506154238 70 266 7.0 11.3 0.03 0.03 0.00 55 1012.4
20260506153934 71 266 7.8 11.3 0.03 0.03 0.00 56 1012.6
20260506153631 71 266 7.8 10.4 0.03 0.03 0.00 54 1012.4
20260506153328 71 266 2.6 18.2 0.03 0.03 0.00 54 1012.4
20260506153024 72 266 2.6 18.2 0.03 0.03 0.00 54 1012.5
20260506152721 73 266 3.5 10.4 0.03 0.03 0.00 52 1012.4
20260506152418 73 266 0.9 8.7 0.03 0.03 0.00 53 1012.6
20260506152115 72 266 2.6 9.6 0.03 0.03 0.00 53 1012.4
20260506151811 73 266 2.6 9.6 0.03 0.03 0.00 52 1012.4
20260506151508 75 266 6.1 9.6 0.03 0.03 0.00 50 1012.6
20260506151204 74 266 3.5 10.4 0.03 0.03 0.00 50 1012.3
20260506150901 75 266 2.6 10.4 0.03 0.03 0.00 51 1012.3
20260506150558 75 266 3.5 12.2 0.03 0.03 0.00 49 1012.3
20260506150302 74 266 3.5 12.2 0.03 0.03 0.00 52 1012.3
20260506145951 74 266 3.5 10.4 0.03 0.03 0.00 50 1012.1
20260506145648 74 266 1.7 15.6 0.03 0.03 0.00 52 1012.5
20260506145344 75 266 6.1 15.6 0.03 0.03 0.00 50 1012.2
20260506145041 74 266 3.5 14.8 0.03 0.03 0.00 49 1012.4
20260506144738 74 266 4.3 14.8 0.03 0.03 0.00 51 1012.3
20260506144434 75 266 6.1 10.4 0.03 0.03 0.00 51 1012.5
20260506144131 75 266 1.7 10.4 0.03 0.03 0.00 50 1012.3
20260506143827 75 266 0.0 10.4 0.03 0.03 0.00 51 1012.4
20260506143524 75 266 4.3 7.8 0.03 0.03 0.00 51 1012.5
20260506143220 75 266 1.7 7.8 0.03 0.03 0.00 51 1012.4
20260506142917 74 266 5.2 16.5 0.03 0.03 0.00 51 1012.4
20260506142614 75 266 8.7 16.5 0.03 0.03 0.00 51 1012.4
20260506142310 75 266 0.0 9.6 0.03 0.03 0.00 51 1012.6
20260506142007 75 266 3.5 8.7 0.03 0.03 0.00 51 1012.6
20260506141704 74 266 1.7 8.7 0.03 0.03 0.00 50 1012.7
20260506141400 73 266 0.9 8.7 0.03 0.03 0.00 51 1012.4
20260506141057 73 266 0.9 9.6 0.03 0.03 0.00 51 1012.5
20260506140753 74 266 5.2 13.0 0.03 0.03 0.00 50 1012.5
20260506140450 75 266 2.6 14.8 0.03 0.03 0.00 49 1012.6
20260506140147 75 266 8.7 14.8 0.03 0.03 0.00 49 1012.4
20260506135843 75 266 0.9 15.6 0.03 0.03 0.00 48 1012.5
20260506135540 75 266 3.5 15.6 0.03 0.03 0.00 48 1012.8
20260506135236 75 266 1.7 7.0 0.03 0.03 0.00 48 1012.4
20260506134933 75 266 3.5 12.2 0.03 0.03 0.00 48 1012.6
20260506134630 74 266 8.7 14.8 0.03 0.03 0.00 48 1012.6
20260506134326 74 266 3.5 14.8 0.03 0.03 0.00 48 1012.6
20260506134023 75 266 9.6 12.2 0.03 0.03 0.00 49 1012.5
20260506133720 76 266 7.0 8.7 0.03 0.03 0.00 47 1012.6
20260506133416 75 266 1.7 7.0 0.03 0.03 0.00 49 1012.2
20260506133113 75 266 3.5 11.3 0.03 0.03 0.00 49 1012.6
20260506132810 76 266 6.1 11.3 0.03 0.03 0.00 49 1012.7
20260506132506 75 266 1.7 12.2 0.03 0.03 0.00 49 1012.7
20260506132203 75 266 7.0 12.2 0.03 0.03 0.00 49 1012.6
20260506131859 76 266 3.5 7.0 0.03 0.03 0.00 48 1012.7
20260506131556 75 266 1.7 7.0 0.03 0.03 0.00 49 1012.7
20260506131253 76 266 1.7 9.6 0.03 0.03 0.00 48 1012.7
20260506130949 77 266 6.1 8.7 0.03 0.03 0.00 48 1012.6
20260506130646 76 266 2.6 9.6 0.03 0.03 0.00 50 1012.7
20260506130343 75 266 6.1 9.6 0.03 0.03 0.00 50 1012.7
20260506130039 75 266 1.7 7.8 0.03 0.03 0.00 49 1012.7
20260506125736 76 266 5.2 7.8 0.03 0.03 0.00 48 1012.6
20260506125433 74 266 0.9 9.6 0.03 0.03 0.00 50 1012.7
20260506125129 75 266 1.7 9.6 0.03 0.03 0.00 51 1012.8
20260506124826 74 266 2.6 11.3 0.03 0.03 0.00 51 1012.9
20260506124523 74 266 4.3 12.2 0.03 0.03 0.00 50 1012.7
20260506124219 74 266 2.6 8.7 0.03 0.03 0.00 49 1012.7
20260506123916 74 266 5.2 14.8 0.03 0.03 0.00 48 1012.9
20260506123612 73 266 2.6 17.4 0.03 0.03 0.00 49 1013.0
20260506123309 73 266 13.9 17.4 0.03 0.03 0.00 49 1013.0
20260506123006 74 266 1.7 5.2 0.03 0.03 0.00 52 1012.9
20260506122702 75 266 3.5 5.2 0.03 0.03 0.00 52 1012.9
20260506122359 75 266 0.9 3.5 0.03 0.03 0.00 51 1013.2
20260506122056 75 266 0.0 7.8 0.03 0.03 0.00 50 1013.0
20260506121752 75 266 5.2 8.7 0.03 0.03 0.00 48 1013.0
20260506121449 75 266 1.7 8.7 0.03 0.03 0.00 49 1013.1
20260506121146 74 266 4.3 8.7 0.03 0.03 0.00 50 1013.1
20260506120842 74 266 4.3 10.4 0.03 0.03 0.00 50 1013.2
20260506120539 74 266 2.6 10.4 0.03 0.03 0.00 50 1013.0
20260506120235 75 266 2.6 7.8 0.03 0.03 0.00 49 1012.9
20260506115932 73 266 6.1 12.2 0.03 0.03 0.00 50 1012.8
20260506115629 74 266 8.7 12.2 0.03 0.03 0.00 49 1012.8
20260506115325 74 266 7.0 12.2 0.03 0.03 0.00 50 1012.8
20260506115022 74 266 2.6 12.2 0.03 0.03 0.00 50 1013.0
20260506114719 73 266 3.5 11.3 0.03 0.03 0.00 50 1013.1
20260506114415 74 266 6.1 10.4 0.03 0.03 0.00 50 1012.7
20260506114112 73 266 7.8 8.7 0.03 0.03 0.00 50 1013.1
20260506113809 73 266 3.5 9.6 0.03 0.03 0.00 51 1013.1
20260506113505 73 266 7.0 9.6 0.03 0.03 0.00 51 1013.1
20260506113202 73 266 4.3 9.6 0.03 0.03 0.00 51 1013.2
20260506112858 74 266 3.5 10.4 0.03 0.03 0.00 50 1013.4
20260506112555 73 266 7.8 10.4 0.03 0.03 0.00 50 1013.1
20260506112252 72 266 4.3 11.3 0.03 0.03 0.00 51 1013.4
20260506111948 72 266 5.2 12.2 0.03 0.03 0.00 51 1013.3
20260506111645 72 266 5.2 12.2 0.03 0.03 0.00 52 1013.4
20260506111342 73 266 5.2 7.8 0.03 0.03 0.00 51 1013.4
20260506111038 72 266 1.7 11.3 0.03 0.03 0.00 52 1013.1
20260506110735 72 266 2.6 13.0 0.03 0.03 0.00 52 1013.3
20260506110431 74 266 8.7 13.0 0.03 0.03 0.00 50 1013.4
20260506110128 72 266 0.9 7.8 0.03 0.03 0.00 53 1013.3
20260506105825 71 266 1.7 7.8 0.03 0.03 0.00 55 1013.4
20260506105521 71 266 0.9 9.6 0.03 0.03 0.00 57 1013.4
20260506105218 71 266 0.0 11.3 0.03 0.03 0.00 56 1013.6
20260506104915 72 266 6.1 11.3 0.03 0.03 0.00 54 1013.6
20260506104611 73 266 4.3 11.3 0.03 0.03 0.00 52 1013.6
20260506104308 73 266 2.6 7.8 0.03 0.03 0.00 50 1013.1
20260506104005 73 266 3.5 8.7 0.03 0.03 0.00 49 1013.3
20260506103701 73 266 7.8 11.3 0.03 0.03 0.00 47 1013.5
20260506103358 74 266 5.2 7.0 0.03 0.03 0.00 46 1013.3
20260506103054 75 266 0.9 7.8 0.03 0.03 0.00 45 1013.3
20260506102751 75 266 1.7 8.7 0.03 0.03 0.00 44 1013.0
20260506102448 75 266 4.3 12.2 0.03 0.03 0.00 44 1013.2
20260506102144 76 266 3.5 12.2 0.03 0.03 0.00 44 1013.3
20260506101841 75 266 2.6 11.3 0.03 0.03 0.00 43 1013.1
20260506101538 76 266 4.3 7.8 0.03 0.03 0.00 41 1013.5
20260506101234 75 266 0.9 10.4 0.03 0.03 0.00 41 1013.2
20260506100931 74 266 4.3 10.4 0.03 0.03 0.00 44 1013.4
20260506100627 75 266 6.1 8.7 0.03 0.03 0.00 43 1013.4
20260506100324 75 266 4.3 8.7 0.03 0.03 0.00 41 1013.1
20260506100021 74 266 0.9 8.7 0.03 0.03 0.00 43 1013.1
20260506095717 74 266 2.6 7.0 0.03 0.03 0.00 42 1013.3
20260506095414 75 266 1.7 12.2 0.03 0.03 0.00 42 1013.2
20260506095111 74 266 6.1 10.4 0.03 0.03 0.00 42 1013.2
20260506094807 75 266 6.1 7.0 0.03 0.03 0.00 40 1013.2
20260506094504 75 266 3.5 7.8 0.03 0.03 0.00 41 1013.2
20260506094200 74 266 5.2 5.2 0.03 0.03 0.00 43 1013.1
20260506093857 74 266 1.7 7.8 0.03 0.03 0.00 43 1013.4
20260506093554 75 266 1.7 5.2 0.03 0.03 0.00 41 1013.2
20260506093250 74 266 0.9 9.6 0.03 0.03 0.00 43 1013.4
20260506092947 74 266 2.6 7.0 0.03 0.03 0.00 44 1013.3
20260506092644 73 266 2.6 7.8 0.03 0.03 0.00 46 1013.3
20260506092340 74 266 1.7 3.5 0.03 0.03 0.00 44 1013.4
20260506092037 73 266 0.0 7.0 0.03 0.03 0.00 47 1013.5
20260506091734 73 266 0.9 9.6 0.03 0.03 0.00 45 1013.5
20260506091430 73 266 1.7 8.7 0.03 0.03 0.00 46 1013.5
20260506091127 73 266 6.1 9.6 0.03 0.03 0.00 46 1013.6
20260506090824 73 266 1.7 3.5 0.03 0.03 0.00 47 1013.9
20260506090520 73 266 1.7 10.4 0.03 0.03 0.00 47 1013.6
20260506090217 73 266 2.6 10.4 0.03 0.03 0.00 47 1013.6
20260506085913 73 266 2.6 10.4 0.03 0.03 0.00 48 1013.6
20260506085610 72 266 2.6 10.4 0.03 0.03 0.00 51 1013.7
20260506085307 72 266 2.6 8.7 0.03 0.03 0.00 51 1013.9
20260506085003 72 266 4.3 7.0 0.03 0.03 0.00 51 1013.8
20260506084700 73 266 0.9 5.2 0.03 0.03 0.00 49 1013.7
20260506084357 72 266 0.0 3.5 0.03 0.03 0.00 52 1013.7
20260506084053 72 266 0.0 3.5 0.03 0.03 0.00 52 1013.6
20260506083750 72 266 0.0 3.5 0.03 0.03 0.00 51 1013.6
20260506083447 71 266 0.0 2.6 0.03 0.03 0.00 53 1013.5
20260506083143 70 266 0.0 7.0 0.03 0.03 0.00 54 1013.6
20260506082840 71 266 4.3 7.0 0.03 0.03 0.00 53 1013.7
20260506082537 71 266 0.9 2.6 0.03 0.03 0.00 53 1013.8
20260506082233 70 266 0.9 2.6 0.03 0.03 0.00 55 1013.9
20260506081930 70 266 0.0 7.0 0.03 0.03 0.00 56 1013.7
20260506081626 69 266 4.3 7.0 0.03 0.03 0.00 57 1013.8
20260506081323 68 266 2.6 7.0 0.03 0.03 0.00 59 1014.0
20260506081020 68 266 3.5 7.0 0.03 0.03 0.00 60 1013.9
20260506080716 69 266 2.6 5.2 0.03 0.03 0.00 58 1014.0
20260506080412 69 266 0.0 4.3 0.03 0.03 0.00 60 1014.1
20260506080108 68 266 1.7 4.3 0.03 0.03 0.00 59 1014.0
20260506073338 68 266 0.0 3.5 0.03 0.03 0.00 60 1013.9
20260506073035 67 266 0.9 3.5 0.03 0.03 0.00 60 1013.7
20260506072732 67 266 0.9 3.5 0.03 0.03 0.00 62 1013.8
20260506072428 67 266 1.7 2.6 0.03 0.03 0.00 61 1013.9
20260506072125 67 266 0.0 3.5 0.03 0.03 0.00 62 1013.9
20260506071821 67 266 0.0 4.3 0.03 0.03 0.00 61 1014.1
20260506071518 66 266 0.9 5.2 0.03 0.03 0.00 62 1014.1
20260506071215 67 266 4.3 5.2 0.03 0.03 0.00 61 1014.0
20260506070911 67 266 0.9 3.5 0.03 0.03 0.00 61 1013.9
20260506070608 67 266 0.0 2.6 0.03 0.03 0.00 63 1013.9
20260506070305 66 266 0.9 3.5 0.03 0.03 0.00 62 1013.8
20260506062321 62 266 0.0 0.0 0.03 0.03 0.00 69 1013.9
20260506062018 61 266 0.0 0.0 0.03 0.03 0.00 70 1014.1
20260506061714 60 266 0.0 1.7 0.03 0.03 0.00 73 1014.2
20260506061411 60 266 0.9 1.7 0.03 0.03 0.00 73 1014.0
20260506061107 60 266 0.0 0.9 0.03 0.03 0.00 73 1014.2
20260506060804 60 266 0.0 0.0 0.03 0.03 0.00 73 1014.1
20260506060501 60 266 0.0 0.9 0.03 0.03 0.00 73 1014.0
20260506060157 59 266 0.0 0.9 0.03 0.03 0.00 74 1014.1
20260506051304 51 266 0.9 2.6 0.03 0.03 0.00 87 1014.1
20260506051000 51 266 1.7 2.6 0.03 0.03 0.00 87 1014.3
20260506050657 50 266 1.7 2.6 0.03 0.03 0.00 88 1014.3
20260506050354 50 266 0.9 1.7 0.03 0.03 0.00 89 1014.4
20260506044837 49 266 1.7 2.6 0.03 0.03 0.00 89 1014.1
20260506044533 49 266 2.6 2.6 0.03 0.03 0.00 90 1014.4
20260506044230 49 266 1.7 2.6 0.03 0.03 0.00 90 1014.2
20260506043927 49 266 1.7 2.6 0.03 0.03 0.00 90 1014.3
20260506043623 48 266 1.7 1.7 0.03 0.03 0.00 91 1014.2
20260506043320 48 266 0.9 1.7 0.03 0.03 0.00 91 1014.4
20260506043017 48 266 0.0 0.0 0.03 0.03 0.00 91 1014.3
20260506042713 48 266 0.0 0.0 0.03 0.03 0.00 92 1013.9
20260506042410 47 266 0.0 0.0 0.03 0.03 0.00 92 1014.1
20260506042107 47 266 0.0 0.0 0.03 0.03 0.00 92 1014.1
20260506041803 47 266 0.0 0.0 0.03 0.03 0.00 93 1014.1
20260506041500 47 266 0.0 0.0 0.03 0.03 0.00 93 1014.1
20260506041157 47 266 0.0 0.0 0.03 0.03 0.00 93 1014.2
20260506040853 47 266 0.0 0.0 0.03 0.03 0.00 93 1014.1
20260506040550 46 266 0.0 0.0 0.03 0.03 0.00 93 1014.0
20260506040246 46 266 0.0 0.0 0.03 0.03 0.00 92 1014.1
20260506035943 47 266 0.0 0.0 0.03 0.03 0.00 93 1014.1
20260506035640 47 266 0.0 0.0 0.03 0.03 0.00 93 1014.1
20260506035336 47 266 0.0 0.0 0.03 0.03 0.00 93 1014.1
20260506035033 47 266 0.0 0.0 0.03 0.03 0.00 93 1014.0
20260506034730 47 266 0.0 0.0 0.03 0.03 0.00 93 1014.1
20260506034426 47 266 0.0 0.0 0.03 0.03 0.00 93 1014.1
20260506034123 47 266 0.0 0.0 0.03 0.03 0.00 93 1014.1
20260506033820 47 266 0.0 0.0 0.03 0.03 0.00 92 1014.2
20260506033516 47 266 0.0 0.0 0.03 0.03 0.00 92 1014.0
20260506033213 47 266 0.0 0.0 0.03 0.03 0.00 92 1013.9
20260506032910 47 266 0.0 0.0 0.03 0.03 0.00 92 1013.9
20260506032606 47 266 0.0 0.0 0.03 0.03 0.00 92 1014.0
20260506032305 47 266 0.0 0.0 0.03 0.03 0.00 92 1014.0
20260506032000 47 266 0.0 0.0 0.03 0.03 0.00 92 1014.0
20260506031656 47 266 0.0 0.0 0.03 0.03 0.00 93 1013.9
20260506031353 47 266 0.0 0.0 0.03 0.03 0.00 92 1014.0
20260506031049 47 266 0.0 0.0 0.03 0.03 0.00 92 1013.9
20260506030746 47 266 0.0 0.0 0.03 0.03 0.00 92 1014.1
20260506030443 47 266 0.0 0.0 0.03 0.03 0.00 93 1014.0
20260506030139 47 266 0.0 0.0 0.03 0.03 0.00 93 1013.8
20260506025836 47 266 0.0 0.0 0.03 0.03 0.00 93 1013.9
20260506025533 47 266 0.0 0.0 0.03 0.03 0.00 93 1013.7
20260506025229 47 266 0.0 0.0 0.03 0.03 0.00 92 1014.0
20260506024926 47 266 0.0 0.0 0.03 0.03 0.00 93 1013.9
20260506024623 47 266 0.0 0.0 0.03 0.03 0.00 92 1013.8
20260506024319 47 266 0.0 0.0 0.03 0.03 0.00 92 1014.0
20260506024016 47 266 0.0 0.0 0.03 0.03 0.00 92 1013.9
20260506023712 47 266 0.0 0.0 0.03 0.03 0.00 92 1013.7
20260506023409 47 266 0.0 0.0 0.03 0.03 0.00 92 1013.6
20260506023106 47 266 0.0 0.0 0.03 0.03 0.00 92 1013.7
20260506022802 47 266 0.0 0.0 0.03 0.03 0.00 92 1013.8
20260506022459 48 266 0.0 0.0 0.03 0.03 0.00 92 1013.7
20260506022156 48 266 0.0 0.0 0.03 0.03 0.00 92 1013.7
20260506021852 48 266 0.0 1.7 0.03 0.03 0.00 92 1013.4
20260506021549 48 266 0.9 1.7 0.03 0.03 0.00 92 1013.6
20260506021246 48 266 0.9 1.7 0.03 0.03 0.00 92 1013.5
20260506020942 48 266 0.0 0.0 0.03 0.03 0.00 92 1013.4
20260506020639 48 266 0.0 0.0 0.03 0.03 0.00 92 1013.7
20260506020335 47 266 0.0 0.0 0.03 0.03 0.00 93 1013.5
20260506020032 47 266 0.0 0.9 0.03 0.03 0.00 92 1013.5
20260506015729 48 266 0.0 0.0 0.03 0.03 0.00 92 1013.4
20260506015425 47 266 0.0 0.0 0.03 0.03 0.00 92 1013.5
20260506015122 47 266 0.0 0.0 0.03 0.03 0.00 91 1013.4
20260506014819 48 266 0.9 1.7 0.03 0.03 0.00 91 1013.2
20260506014515 48 266 0.9 1.7 0.03 0.03 0.00 92 1013.3
20260506014212 48 266 0.0 1.7 0.03 0.03 0.00 92 1013.5
20260506013909 47 266 0.9 1.7 0.03 0.03 0.00 92 1013.4
20260506013605 48 266 0.0 0.0 0.03 0.03 0.00 91 1013.4
20260506013302 48 266 0.0 0.0 0.03 0.03 0.00 91 1013.4
20260506012958 48 266 0.0 1.7 0.03 0.03 0.00 91 1013.3
20260506012655 48 266 0.9 1.7 0.03 0.03 0.00 91 1013.3
20260506012352 48 266 0.9 1.7 0.03 0.03 0.00 91 1013.1
20260506012049 48 266 1.7 1.7 0.03 0.03 0.00 91 1013.3
20260506011745 48 266 0.0 0.0 0.03 0.03 0.00 91 1013.2
20260506011442 48 266 0.0 0.0 0.03 0.03 0.00 91 1013.4
20260506011138 48 266 0.0 0.0 0.03 0.03 0.00 90 1013.2
20260506010835 48 266 0.0 0.0 0.03 0.03 0.00 90 1013.3
20260506010532 48 266 0.0 0.9 0.03 0.03 0.00 90 1013.0
20260506010228 49 266 0.0 1.7 0.03 0.03 0.00 89 1013.1
20260506005925 49 266 0.9 2.6 0.03 0.03 0.00 90 1013.1
20260506005622 49 266 0.0 0.0 0.03 0.03 0.00 90 1013.1
20260506005318 49 266 0.0 0.0 0.03 0.03 0.00 90 1013.2
20260506005015 49 266 0.0 0.0 0.03 0.03 0.00 90 1013.2
20260506004712 49 266 0.0 0.0 0.03 0.03 0.00 90 1013.0
20260506004408 49 266 0.0 0.0 0.03 0.03 0.00 89 1013.0
20260506004105 49 266 0.0 0.9 0.03 0.03 0.00 89 1013.4
20260506003802 49 266 0.0 1.7 0.03 0.03 0.00 89 1013.2
20260506003458 50 265 0.9 2.6 0.03 0.03 0.00 88 1013.2
20260506003155 50 261 1.7 2.6 0.03 0.03 0.00 88 1012.9
20260506002851 50 258 1.7 2.6 0.03 0.03 0.00 88 1013.1
20260506002548 50 253 0.9 1.7 0.03 0.03 0.00 88 1013.0
20260506002245 50 247 0.9 1.7 0.03 0.03 0.00 88 1013.0
20260506001941 50 240 1.7 1.7 0.03 0.03 0.00 87 1013.1
20260506001638 50 232 1.7 2.6 0.03 0.03 0.00 87 1013.0
20260506001335 51 224 0.9 2.6 0.03 0.03 0.00 87 1013.0
20260506001031 51 214 1.7 2.6 0.03 0.03 0.00 88 1013.0
20260506000728 51 195 0.0 0.0 0.03 0.03 0.00 87 1013.0
20260506000425 51 168 0.0 0.0 0.03 0.03 0.00 87 1013.2
20260506000121 51 147 0.0 0.0 0.03 0.03 0.00 87 1013.2
20260505235818 51 135 0.0 0.9 0.03 0.03 0.00 86 1013.0
20260505235515 52 125 0.0 0.9 0.03 0.03 0.00 86 1013.1
20260505235211 52 116 0.0 0.0 0.03 0.03 0.00 86 1013.2
20260505234908 52 114 0.0 1.7 0.03 0.03 0.00 85 1013.1
20260505234605 53 113 0.9 1.7 0.03 0.03 0.00 85 1012.9
20260505234301 53 110 0.0 1.7 0.03 0.03 0.00 85 1013.1
20260505233958 53 109 0.0 1.7 0.03 0.03 0.00 85 1012.9
20260505233654 53 107 0.9 0.9 0.03 0.03 0.00 85 1013.2
20260505233351 53 106 0.0 1.7 0.03 0.03 0.00 85 1013.0
20260505233048 53 102 0.0 0.0 0.03 0.03 0.00 85 1013.1
20260505232744 53 102 0.0 0.0 0.03 0.03 0.00 85 1013.0
20260505232441 53 101 0.0 0.0 0.03 0.03 0.00 85 1013.3
20260505232138 53 99 0.0 0.0 0.03 0.03 0.00 85 1013.2
20260505231834 53 97 0.0 0.0 0.03 0.03 0.00 84 1013.2
20260505231531 53 97 0.0 0.0 0.03 0.03 0.00 83 1013.1
20260505231228 53 98 0.0 0.9 0.03 0.03 0.00 83 1013.1
20260505230924 54 99 0.0 0.9 0.03 0.03 0.00 83 1013.0
20260505230621 54 100 0.0 0.0 0.03 0.03 0.00 82 1013.0
20260505230318 54 102 0.0 1.7 0.03 0.03 0.00 82 1013.1
20260505230014 55 104 0.9 3.5 0.03 0.03 0.00 80 1013.0
20260505225711 55 103 2.6 3.5 0.03 0.03 0.00 79 1013.2
20260505225407 56 102 0.9 3.5 0.03 0.03 0.00 78 1013.2
20260505225104 57 102 0.9 2.6 0.03 0.03 0.00 78 1013.2
20260505224801 58 101 0.0 1.7 0.03 0.03 0.00 76 1013.0
20260505224457 58 102 0.0 0.0 0.03 0.03 0.00 75 1013.1
20260505224154 58 105 0.0 1.7 0.03 0.03 0.00 75 1013.1
20260505223850 59 109 0.0 2.6 0.03 0.03 0.00 75 1012.9
20260505223547 59 112 0.9 3.5 0.03 0.03 0.00 75 1012.9
20260505223244 59 116 0.9 5.2 0.03 0.00 0.00 74 1012.8
20260505222940 59 113 0.0 4.3 0.03 0.00 0.00 74 1012.6
20260505222637 59 115 1.7 4.3 0.03 0.00 0.00 74 1012.9
20260505222334 59 112 1.7 7.0 0.03 0.00 0.00 74 1012.9
20260505222030 59 108 1.7 7.0 0.03 0.00 0.00 74 1012.8
20260505221727 59 102 0.9 5.2 0.03 0.00 0.00 74 1012.9
20260505221423 59 102 1.7 5.2 0.03 0.00 0.00 74 1012.9
20260505221120 59 99 0.0 4.3 0.03 0.00 0.00 74 1013.0
20260505220817 59 98 0.0 3.5 0.03 0.00 0.00 74 1012.9
20260505220513 59 98 0.9 4.3 0.03 0.00 0.00 74 1012.9
20260505220210 58 95 0.0 3.5 0.03 0.00 0.00 75 1012.8
20260505215907 58 96 2.6 3.5 0.03 0.00 0.00 75 1012.9
20260505215603 58 94 0.0 1.7 0.03 0.00 0.00 75 1013.0
20260505215300 58 95 0.0 1.7 0.03 0.00 0.00 75 1012.9
20260505214957 59 97 0.0 1.7 0.03 0.00 0.00 74 1013.1
20260505214653 58 98 0.0 1.7 0.03 0.00 0.00 74 1013.1
20260505214350 59 100 0.0 5.2 0.03 0.00 0.00 74 1013.1
20260505214047 58 99 3.5 5.2 0.03 0.00 0.00 75 1012.9
20260505213743 58 98 0.0 2.6 0.03 0.00 0.00 75 1012.7
20260505213440 58 100 0.0 7.0 0.03 0.00 0.00 74 1013.0
20260505213137 58 95 0.9 2.6 0.03 0.00 0.00 76 1012.9
20260505212833 57 95 1.7 2.6 0.03 0.00 0.00 76 1013.0
20260505212530 57 94 0.0 0.0 0.03 0.00 0.00 76 1013.0
20260505212226 57 95 0.0 0.9 0.03 0.00 0.00 75 1012.9
20260505211923 58 97 0.0 1.7 0.03 0.00 0.00 74 1013.0
20260505211620 58 100 0.0 1.7 0.03 0.00 0.00 74 1013.0
20260505211316 59 103 0.0 1.7 0.03 0.00 0.00 73 1012.9
20260505211013 59 107 0.0 1.7 0.03 0.00 0.00 73 1012.9
20260505210710 59 108 1.7 2.6 0.03 0.00 0.00 73 1013.0
20260505210406 59 110 0.9 2.6 0.03 0.00 0.00 73 1013.0
20260505210103 59 121 0.0 2.6 0.03 0.00 0.00 73 1013.0
20260505205800 59 144 0.0 2.6 0.03 0.00 0.00 73 1012.8
20260505205456 59 225 0.0 2.6 0.03 0.00 0.00 73 1012.9
20260505205153 59 249 0.0 2.6 0.03 0.00 0.00 73 1012.8
20260505204850 59 257 0.0 0.9 0.03 0.00 0.00 73 1012.9
20260505204546 59 257 0.0 0.9 0.03 0.00 0.00 73 1012.8
20260505204243 59 256 0.0 3.5 0.03 0.00 0.00 72 1012.9
20260505203940 59 256 0.0 3.5 0.03 0.00 0.00 72 1013.0
20260505203636 59 258 1.7 2.6 0.03 0.00 0.00 72 1013.0
20260505203333 59 259 0.0 1.7 0.03 0.00 0.00 71 1013.0
20260505203029 59 261 0.0 1.7 0.03 0.00 0.00 71 1013.1
20260505202726 59 260 0.0 1.7 0.03 0.00 0.00 71 1013.2
20260505202423 59 260 0.0 0.0 0.03 0.00 0.00 71 1013.2
20260505202119 60 258 0.0 1.7 0.03 0.00 0.00 71 1013.4
20260505201816 60 256 0.0 2.6 0.03 0.00 0.00 70 1013.3
20260505201513 60 256 0.0 2.6 0.03 0.00 0.00 70 1013.1
20260505201209 60 254 0.0 3.5 0.03 0.00 0.00 69 1013.3
20260505200906 60 253 0.0 5.2 0.03 0.00 0.00 69 1013.4
20260505200603 60 254 4.3 5.2 0.03 0.00 0.00 69 1013.4
20260505200259 61 254 3.5 7.8 0.03 0.00 0.00 69 1013.0
20260505195956 61 254 0.0 7.8 0.03 0.00 0.00 68 1013.2
20260505195653 61 255 1.7 7.0 0.03 0.00 0.00 68 1013.1
20260505195349 61 255 0.0 7.0 0.03 0.00 0.00 68 1013.1
20260505195046 61 256 0.0 5.2 0.03 0.00 0.00 68 1013.2
20260505194743 61 257 2.6 4.3 0.03 0.00 0.00 68 1013.2
20260505194439 61 258 1.7 4.3 0.03 0.00 0.00 67 1013.1
20260505194136 61 259 0.0 4.3 0.03 0.00 0.00 68 1013.2
20260505193832 61 259 0.0 4.3 0.03 0.00 0.00 67 1013.0
20260505193529 61 259 0.0 7.0 0.03 0.00 0.00 66 1013.1
20260505193226 61 260 0.9 7.0 0.03 0.00 0.00 66 1012.9
20260505192922 62 260 0.0 7.8 0.03 0.00 0.00 66 1013.1
20260505192619 62 260 0.9 8.7 0.03 0.00 0.00 66 1013.0
20260505192316 62 260 1.7 7.8 0.03 0.00 0.00 65 1012.8
20260505192013 62 260 0.9 10.4 0.03 0.00 0.00 65 1012.9
20260505191709 62 259 2.6 11.3 0.03 0.00 0.00 65 1012.8
20260505191406 62 259 6.1 11.3 0.03 0.00 0.00 65 1012.8
20260505191102 62 259 4.3 10.4 0.03 0.00 0.00 64 1012.9
20260505190759 62 259 8.7 10.4 0.03 0.00 0.00 64 1013.0
20260505190455 62 259 7.0 9.6 0.03 0.00 0.00 64 1012.8
20260505190152 62 259 1.7 11.3 0.03 0.00 0.00 64 1012.8
20260505185849 62 259 1.7 11.3 0.03 0.00 0.00 64 1012.8
20260505185545 62 259 0.0 11.3 0.03 0.00 0.00 63 1012.8
20260505185242 62 260 2.6 11.3 0.03 0.00 0.00 63 1012.8
20260505184938 62 261 1.7 7.8 0.03 0.00 0.00 64 1012.8
20260505184635 63 262 0.0 7.0 0.03 0.00 0.00 63 1012.8
20260505184332 63 263 4.3 8.7 0.03 0.00 0.00 62 1012.7
20260505184028 63 263 0.0 11.3 0.03 0.00 0.00 62 1012.9
20260505183725 63 263 3.5 7.0 0.03 0.00 0.00 62 1013.0
20260505183422 63 264 2.6 8.7 0.03 0.00 0.00 62 1013.0
20260505183118 63 265 1.7 12.2 0.03 0.00 0.00 62 1012.8
20260505182815 63 266 6.1 12.2 0.03 0.00 0.00 61 1012.8
20260505182512 63 266 2.6 8.7 0.03 0.00 0.00 61 1012.6
20260505182208 63 266 0.9 9.6 0.03 0.00 0.00 61 1012.5
20260505181905 64 266 7.8 9.6 0.03 0.00 0.00 60 1012.7
20260505181602 64 266 0.9 13.0 0.03 0.00 0.00 60 1012.9
20260505181258 64 266 6.1 13.0 0.03 0.00 0.00 60 1012.8
20260505180955 64 266 1.7 7.8 0.03 0.00 0.00 60 1012.7
20260505180652 64 266 1.7 9.6 0.03 0.00 0.00 60 1012.7
20260505180348 64 266 2.6 9.6 0.03 0.00 0.00 59 1012.5
20260505180045 65 266 6.1 9.6 0.03 0.00 0.00 59 1012.6
20260505175741 65 266 1.7 7.8 0.03 0.00 0.00 59 1012.8
20260505175438 65 266 2.6 9.6 0.03 0.00 0.00 58 1012.7
20260505175135 65 266 0.9 10.4 0.03 0.00 0.00 58 1012.6
20260505174831 66 266 7.8 10.4 0.03 0.00 0.00 57 1012.7
20260505174528 66 266 1.7 5.2 0.03 0.00 0.00 57 1012.8
20260505174225 66 266 2.6 11.3 0.03 0.00 0.00 56 1012.7
20260505173921 67 266 3.5 8.7 0.03 0.00 0.00 56 1012.7
20260505173618 67 266 0.9 8.7 0.03 0.00 0.00 55 1012.8
20260505173315 67 266 2.6 8.7 0.03 0.00 0.00 55 1012.8
20260505173011 67 266 5.2 8.7 0.03 0.00 0.00 55 1012.7
20260505172708 67 266 0.9 8.7 0.03 0.00 0.00 54 1012.8
20260505172405 68 266 0.9 9.6 0.03 0.00 0.00 54 1013.0
20260505172101 68 266 6.1 9.6 0.03 0.00 0.00 53 1012.8
20260505171758 69 266 0.9 9.6 0.03 0.00 0.00 52 1012.9
20260505171455 69 266 6.1 9.6 0.03 0.00 0.00 52 1012.9
20260505171151 70 266 0.9 7.8 0.03 0.00 0.00 51 1012.9
20260505170848 69 266 1.7 8.7 0.03 0.00 0.00 51 1012.9
20260505170545 69 266 4.3 14.8 0.03 0.00 0.00 51 1012.8
20260505170241 69 266 2.6 8.7 0.03 0.00 0.00 51 1013.1
20260505165938 69 266 2.6 12.2 0.03 0.00 0.00 51 1013.0
20260505165634 70 266 4.3 12.2 0.03 0.00 0.00 51 1013.0